TimePST,TemperatureF,Dew PointF,Humidity,Sea Level PressureIn,VisibilityMPH,Wind Direction,Wind SpeedMPH,Gust SpeedMPH,PrecipitationIn,Events,Conditions,WindDirDegrees,DateUTC
12:15 AM,32.0,26.6,80,29.75,6.0,WNW,4.6,-,N/A,Snow,Light Snow,290,2012-11-09 08:15:00
12:35 AM,32.0,26.6,80,29.75,5.0,West,4.6,-,N/A,Snow,Light Snow,270,2012-11-09 08:35:00
12:55 AM,32.0,26.6,80,29.75,5.0,WSW,4.6,-,N/A,Snow,Light Snow,250,2012-11-09 08:55:00
1:15 AM,32.0,26.6,80,29.75,8.0,WSW,4.6,-,N/A,,Scattered Clouds,240,2012-11-09 09:15:00
1:35 AM,32.0,26.6,80,29.76,10.0,SW,3.5,-,N/A,,Mostly Cloudy,230,2012-11-09 09:35:00
1:55 AM,32.0,26.6,80,29.76,10.0,SW,4.6,-,N/A,,Mostly Cloudy,230,2012-11-09 09:55:00
2:15 AM,32.0,24.8,75,29.76,10.0,SW,4.6,-,N/A,,Partly Cloudy,230,2012-11-09 10:15:00
2:35 AM,32.0,24.8,75,29.77,10.0,Calm,Calm,-,N/A,,Clear,0,2012-11-09 10:35:00
3:15 AM,32.0,24.8,75,29.77,9.0,Calm,Calm,-,N/A,,Mostly Cloudy,0,2012-11-09 11:15:00
3:35 AM,32.0,24.8,75,29.77,6.0,West,3.5,-,N/A,Snow,Light Snow,280,2012-11-09 11:35:00
4:15 AM,32.0,24.8,75,29.77,10.0,WNW,3.5,-,N/A,Snow,Light Snow,290,2012-11-09 12:15:00
4:35 AM,32.0,24.8,75,29.78,3.0,Calm,Calm,-,0.02,Snow,Light Snow,0,2012-11-09 12:35:00
4:55 AM,32.0,24.8,75,29.78,3.0,Calm,Calm,-,0.07,Snow-Thunderstorm,Light Snow,0,2012-11-09 12:55:00
5:15 AM,32.0,24.8,75,29.78,5.0,Calm,Calm,-,0.01,Snow,Light Snow,0,2012-11-09 13:15:00
5:35 AM,32.0,24.8,75,29.78,2.5,Calm,Calm,-,0.06,Snow,Light Snow,0,2012-11-09 13:35:00
5:55 AM,32.0,24.8,75,29.78,9.0,Calm,Calm,-,0.07,Snow,Light Snow,0,2012-11-09 13:55:00
6:15 AM,30.2,24.8,80,29.78,10.0,Calm,Calm,-,N/A,,Mostly Cloudy,0,2012-11-09 14:15:00
6:35 AM,30.2,24.8,80,29.78,10.0,Calm,Calm,-,N/A,Thunderstorm,Mostly Cloudy,0,2012-11-09 14:35:00
7:15 AM,28.4,24.8,86,29.79,5.0,Calm,Calm,-,N/A,,Haze,0,2012-11-09 15:15:00
7:35 AM,26.6,23.0,86,29.79,7.0,Calm,Calm,-,N/A,,Mostly Cloudy,0,2012-11-09 15:35:00
7:55 AM,28.4,23.0,80,29.80,7.0,Calm,Calm,-,N/A,,Clear,0,2012-11-09 15:55:00
8:15 AM,28.4,23.0,80,29.80,7.0,Calm,Calm,-,N/A,,Partly Cloudy,0,2012-11-09 16:15:00
8:35 AM,32.0,24.8,75,29.80,8.0,Calm,Calm,-,N/A,,Mostly Cloudy,0,2012-11-09 16:35:00
8:55 AM,32.0,26.6,80,29.81,9.0,Calm,Calm,-,N/A,,Overcast,0,2012-11-09 16:55:00
9:15 AM,32.0,24.8,75,29.80,8.0,Calm,Calm,-,N/A,,Overcast,0,2012-11-09 17:15:00
9:35 AM,32.0,23.0,69,29.81,10.0,NNW,3.5,-,N/A,,Mostly Cloudy,330,2012-11-09 17:35:00
9:55 AM,32.0,21.2,64,29.81,10.0,Calm,Calm,-,N/A,,Mostly Cloudy,0,2012-11-09 17:55:00
10:15 AM,33.8,19.4,56,29.81,10.0,North,3.5,-,N/A,,Mostly Cloudy,350,2012-11-09 18:15:00
10:35 AM,35.6,19.4,52,29.81,10.0,NW,5.8,-,N/A,,Scattered Clouds,310,2012-11-09 18:35:00
10:55 AM,33.8,19.4,56,29.80,10.0,NNW,8.1,-,N/A,,Partly Cloudy,330,2012-11-09 18:55:00
11:15 AM,35.6,17.6,48,29.80,10.0,WNW,4.6,-,N/A,,Scattered Clouds,300,2012-11-09 19:15:00
11:35 AM,35.6,19.4,52,29.80,10.0,WNW,6.9,-,N/A,,Partly Cloudy,290,2012-11-09 19:35:00
11:55 AM,37.4,19.4,48,29.79,10.0,WNW,9.2,-,N/A,,Partly Cloudy,300,2012-11-09 19:55:00
12:15 PM,37.4,15.8,41,29.78,10.0,NW,11.5,-,N/A,,Scattered Clouds,310,2012-11-09 20:15:00
12:35 PM,35.6,14.0,41,29.78,10.0,NNW,8.1,-,N/A,,Partly Cloudy,330,2012-11-09 20:35:00
12:55 PM,37.4,14.0,38,29.77,10.0,WSW,4.6,-,N/A,,Partly Cloudy,250,2012-11-09 20:55:00
1:15 PM,37.4,10.4,33,29.77,10.0,WNW,5.8,-,N/A,,Mostly Cloudy,300,2012-11-09 21:15:00
1:55 PM,39.2,12.2,33,29.76,10.0,SW,5.8,-,N/A,,Overcast,230,2012-11-09 21:55:00
2:35 PM,37.4,8.6,30,29.76,10.0,NW,5.8,-,N/A,Thunderstorm,Mostly Cloudy,310,2012-11-09 22:35:00
2:55 PM,37.4,8.6,30,29.76,10.0,WNW,5.8,-,N/A,,Partly Cloudy,300,2012-11-09 22:55:00
3:15 PM,35.6,10.4,35,29.76,10.0,WNW,4.6,-,N/A,,Scattered Clouds,290,2012-11-09 23:15:00
3:35 PM,35.6,10.4,35,29.76,10.0,West,3.5,-,N/A,,Partly Cloudy,280,2012-11-09 23:35:00
3:55 PM,35.6,12.2,38,29.76,10.0,Calm,Calm,-,N/A,,Scattered Clouds,0,2012-11-09 23:55:00
4:15 PM,35.6,15.8,44,29.76,10.0,WSW,3.5,-,N/A,,Scattered Clouds,240,2012-11-10 00:15:00
4:35 PM,35.6,14.0,41,29.76,10.0,Calm,Calm,-,N/A,,Mostly Cloudy,0,2012-11-10 00:35:00
4:55 PM,35.6,14.0,41,29.77,10.0,Calm,Calm,-,N/A,,Mostly Cloudy,0,2012-11-10 00:55:00
5:15 PM,33.8,12.2,41,29.77,10.0,Calm,Calm,-,N/A,,Mostly Cloudy,0,2012-11-10 01:15:00
5:35 PM,33.8,14.0,44,29.77,10.0,Calm,Calm,-,N/A,,Mostly Cloudy,0,2012-11-10 01:35:00
5:55 PM,32.0,15.8,51,29.78,10.0,Calm,Calm,-,N/A,,Mostly Cloudy,0,2012-11-10 01:55:00
6:15 PM,32.0,15.8,51,29.78,10.0,Calm,Calm,-,N/A,,Mostly Cloudy,0,2012-11-10 02:15:00
6:35 PM,30.2,15.8,55,29.78,10.0,Calm,Calm,-,N/A,,Scattered Clouds,0,2012-11-10 02:35:00
6:55 PM,32.0,17.6,55,29.79,10.0,Calm,Calm,-,N/A,,Mostly Cloudy,0,2012-11-10 02:55:00
7:15 PM,32.0,23.0,69,29.79,4.0,NNW,3.5,-,N/A,Snow,Light Snow,340,2012-11-10 03:15:00
7:35 PM,30.2,24.8,80,29.79,3.0,North,4.6,-,0.01,Snow,Light Snow,350,2012-11-10 03:35:00
7:55 PM,30.2,24.8,80,29.79,3.0,Calm,Calm,-,0.03,Snow,Light Snow,0,2012-11-10 03:55:00
8:15 PM,30.2,24.8,80,29.79,5.0,Calm,Calm,-,0.02,Snow,Light Snow,0,2012-11-10 04:15:00
8:35 PM,30.2,24.8,80,29.80,9.0,Calm,Calm,-,0.04,Snow,Light Snow,0,2012-11-10 04:35:00
8:55 PM,30.2,24.8,80,29.80,9.0,Calm,Calm,-,0.04,Snow,Light Snow,0,2012-11-10 04:55:00
9:15 PM,30.2,24.8,80,29.80,10.0,Calm,Calm,-,N/A,,Overcast,0,2012-11-10 05:15:00
9:35 PM,30.2,24.8,80,29.80,5.0,Calm,Calm,-,N/A,Snow,Light Snow,0,2012-11-10 05:35:00
9:55 PM,30.2,24.8,80,29.80,1.5,Calm,Calm,-,0.05,Snow,Light Snow,0,2012-11-10 05:55:00
10:15 PM,30.2,24.8,80,29.80,1.0,Calm,Calm,-,0.15,Snow,Light Snow,0,2012-11-10 06:15:00
10:35 PM,30.2,24.8,80,29.80,1.2,Calm,Calm,-,0.29,Snow,Light Snow,0,2012-11-10 06:35:00
10:55 PM,28.4,24.8,86,29.80,2.5,Calm,Calm,-,0.35,Snow,Light Snow,0,2012-11-10 06:55:00
11:15 PM,28.4,24.8,86,29.80,1.0,Calm,Calm,-,0.18,Snow,Light Snow,0,2012-11-10 07:15:00
11:35 PM,28.4,24.8,86,29.81,1.2,Calm,Calm,-,0.32,Snow,Light Snow,0,2012-11-10 07:35:00
11:55 PM,28.4,24.8,86,29.81,1.2,Calm,Calm,-,0.48,Snow,Light Snow,0,2012-11-10 07:55:00